METAR AND TAF INFORMATION
METAR FOR RJSC
ADDS - METARS form results

(0854 UTC 21 March 2019)
Data provider http://aviationweather.gov/metar/data/
 
METAR text: RJSC 210800Z 20003KT 9999 FEW040 BKN050 10/07 Q0999
Conditions at: RJSC (YAMAGATA(CIV/JGS, JP) observed 0800 UTC 21 March 2019
Temperature: 10.0°C (50°F)
Dewpoint: 7.0°C (45°F) [RH = 82%]
Pressure (altimeter): 29.50 inches Hg (999.0 mb)
Winds: from the SSW (200 degrees) at 3 MPH (3 knots; 1.5 m/s)
Visibility: 6 or more miles (10+ km)
Ceiling: 5000 feet AGL
Clouds: few clouds at 4000 feet AGL
broken clouds at 5000 feet AGL
Weather: no significant weather observed at this time

 AIRPORT MAP

 RUNWAY INFORMATION
Runway 01 Runway length 6560 ft Runway width 150 ft
Runway elevation 347 ft Runway displaced threshold 0 ft Runway heading 7
Runway 19 Runway length 6560 ft Runway width 150 ft
Runway elevation 353 ft Runway displaced threshold 0 ft Runway heading 187

 AIRPORT FREQUENCIES
Type ACC Name TOKYO CON Frequency 118.9 MHZ
Type RDO Name RDO Frequency 122.7 MHZ

 AIRPORT NEAR NAVIGATION AIDS
Type VOR-DME Name Yamagata Frequency 113000 KHZ
Type VOR Name Zao-Yamada Frequency 110800 KHZ



Powered by Virtual Airlines Manager [v2.6.2]